Home   Weather   Ensenada   Past weeks

Flag for Mexico Past Weather in Ensenada, Baja California, Mexico — Yesterday and Last 2 Weeks

Now
55 °F

Mostly cloudy.


Feels Like: 53 °F
Forecast: 52 / 59 °F
Wind: 9 mph from Northwest

Location: Tijuana International Airport

Current Time: Jan 18, 2017 at 6:41:40 pm

Latest Report: Jan 18, 2017 at 5:44 pm


Visibility: 5 mi

Pressure: 30.17 "Hg

Humidity: 72%

Dew Point: 46 °F

Location of EnsenadaLocation

Past Weather in Ensenada — Graph

°F

Ensenada Temperature Yesterday

Maximum temperature yesterday: 64 °F (at 12:46 pm)
Minimum temperature yesterday: 45 °F (at 4:41 am)
Average temperature yesterday: 53 °F

High & Low Weather Summary for the Past Weeks

 TemperatureHumidityPressure
High79 °F (Jan 8, 11:49 am)100% (Jan 5, 12:42 pm)30.25 "Hg (Jan 5, 12:42 pm)
Low45 °F (Jan 17, 4:41 am)25% (Jan 7, 1:48 pm)29.97 "Hg (Jan 12, 4:44 am)
Average56 °F75%30.10 "Hg
* Reported Jan 3 4:44 pm — Jan 18 4:48 pm, Ensenada, Weather by CustomWeather, © 2017

Note: Actual official high and low records may vary slightly from our data, if they occured in-between our weather recording intervals... More about our weather records

Advertising

Ensenada Weather History for the Previous 24 Hours

Scroll right to see more
 ConditionsComfort  
Time TempWeatherWind HumidityBarometerVisibility
4:48 pm
Wed, Jan 18
55 °FMostly cloudy.10 mph77%30.15 "Hg6 mi
3:41 pm57 °FOvercast.8 mph67%30.15 "Hg6 mi
2:54 pm57 °FOvercast.10 mph67%30.12 "Hg6 mi
1:44 pm59 °FPartly sunny.No wind59%30.10 "Hg6 mi
12:50 pm59 °FScattered clouds.No wind63%30.16 "Hg6 mi
11:43 am59 °FScattered clouds.No wind63%30.17 "Hg6 mi
10:44 am57 °FScattered clouds.No wind63%30.21 "Hg7 mi
9:46 am57 °FPassing clouds.No wind48%30.23 "Hg8 mi
8:42 am52 °FPassing clouds.No wind62%30.22 "Hg8 mi
7:40 am48 °FScattered clouds.No wind71%30.20 "Hg10 mi
6:46 am45 °FPassing clouds.No wind81%30.21 "Hg10 mi
5:42 am45 °FPassing clouds.No wind81%30.18 "Hg7 mi
4:44 am46 °FPassing clouds.No wind82%30.17 "Hg7 mi
3:44 am46 °FPassing clouds.No wind82%30.19 "Hg7 mi
2:46 am46 °FPassing clouds.No wind82%30.18 "Hg7 mi
1:45 am48 °FPassing clouds.No wind82%30.19 "Hg7 mi
12:48 am48 °FClear.No wind82%30.21 "Hg8 mi
11:51 pm
Tue, Jan 17
50 °FClear.No wind82%30.19 "Hg8 mi
10:43 pm50 °FClear.No wind82%30.18 "Hg8 mi
9:52 pm50 °FClear.No wind76%30.18 "Hg8 mi
8:46 pm52 °FClear.No wind72%30.17 "Hg6 mi
7:46 pm54 °FClear.No wind72%30.16 "Hg6 mi
6:43 pm54 °FClear.No wind72%30.17 "Hg6 mi
Weather by CustomWeather, © 2017

See weather overviewHow to use our weather pages